Time,TemperatureF,DewpointF,PressureIn,WindDirection,WindDirectionDegrees,WindSpeedMPH,WindSpeedGustMPH,Humidity,HourlyPrecipIn,Conditions,Clouds,dailyrainin,SoftwareType,DateUTC
2013-11-05 00:00:00,31.6,23.3,30.50,ENE,67,0.0,-999.0,71,-99.99,,,0.00,Acu-Link.com,2013-11-05 05:00:00,
2013-11-05 00:15:00,32.4,23.0,30.50,ENE,67,0.0,-999.0,68,-99.99,,,0.00,Acu-Link.com,2013-11-05 05:15:00,
2013-11-05 00:31:00,32.7,23.7,30.50,ENE,67,0.0,-999.0,69,-99.99,,,0.00,Acu-Link.com,2013-11-05 05:31:00,
2013-11-05 00:46:00,33.4,23.3,30.50,ENE,67,0.0,-999.0,66,-99.99,,,0.00,Acu-Link.com,2013-11-05 05:46:00,
2013-11-05 01:01:00,34.0,22.4,30.50,ENE,67,0.0,-999.0,62,-99.99,,,0.00,Acu-Link.com,2013-11-05 06:01:00,
2013-11-05 01:16:00,34.3,21.9,30.50,ENE,67,0.0,-999.0,60,-99.99,,,0.00,Acu-Link.com,2013-11-05 06:16:00,
2013-11-05 01:31:00,34.5,21.7,30.50,ENE,67,0.0,-999.0,59,-99.99,,,0.00,Acu-Link.com,2013-11-05 06:31:00,
2013-11-05 01:47:00,35.1,21.8,30.50,ENE,67,0.0,-999.0,58,-99.99,,,0.00,Acu-Link.com,2013-11-05 06:47:00,
2013-11-05 02:02:00,34.7,21.5,30.50,ENE,67,0.0,-999.0,58,-99.99,,,0.00,Acu-Link.com,2013-11-05 07:02:00,
2013-11-05 02:17:00,34.3,21.1,30.50,ENE,67,0.0,-999.0,58,-99.99,,,0.00,Acu-Link.com,2013-11-05 07:17:00,
2013-11-05 02:32:00,34.2,21.8,30.50,ENE,67,0.0,-999.0,60,-99.99,,,0.00,Acu-Link.com,2013-11-05 07:32:00,
2013-11-05 02:48:00,34.3,21.9,30.50,ENE,67,0.0,-999.0,60,-99.99,,,0.00,Acu-Link.com,2013-11-05 07:48:00,
2013-11-05 03:04:00,34.3,21.9,30.50,ENE,67,0.0,-999.0,60,-99.99,,,0.00,Acu-Link.com,2013-11-05 08:04:00,
2013-11-05 03:19:00,34.5,24.0,30.49,ENE,67,0.0,-999.0,65,-99.99,,,0.00,Acu-Link.com,2013-11-05 08:19:00,
2013-11-05 03:34:00,34.5,24.0,30.50,ENE,67,0.0,-999.0,65,-99.99,,,0.00,Acu-Link.com,2013-11-05 08:34:00,
2013-11-05 03:49:00,34.3,24.1,30.49,ENE,67,0.0,-999.0,66,-99.99,,,0.00,Acu-Link.com,2013-11-05 08:49:00,
2013-11-05 04:05:00,34.0,23.9,30.50,ENE,67,0.0,-999.0,66,-99.99,,,0.00,Acu-Link.com,2013-11-05 09:05:00,
2013-11-05 04:20:00,34.0,24.6,30.51,ENE,67,0.0,-999.0,68,-99.99,,,0.00,Acu-Link.com,2013-11-05 09:20:00,
2013-11-05 04:35:00,33.8,24.7,30.51,ENE,67,0.0,-999.0,69,-99.99,,,0.00,Acu-Link.com,2013-11-05 09:35:00,
2013-11-05 04:51:00,34.0,24.2,30.51,ENE,67,0.0,-999.0,67,-99.99,,,0.00,Acu-Link.com,2013-11-05 09:51:00,
2013-11-05 05:06:00,34.2,24.8,30.52,ENE,67,0.0,-999.0,68,-99.99,,,0.00,Acu-Link.com,2013-11-05 10:06:00,
2013-11-05 05:21:00,34.0,24.6,30.51,ENE,67,0.0,-999.0,68,-99.99,,,0.00,Acu-Link.com,2013-11-05 10:21:00,
2013-11-05 05:36:00,34.2,24.8,30.51,ENE,67,0.0,-999.0,68,-99.99,,,0.00,Acu-Link.com,2013-11-05 10:36:00,
2013-11-05 05:51:00,34.3,25.6,30.50,ENE,67,0.0,-999.0,70,-99.99,,,0.00,Acu-Link.com,2013-11-05 10:51:00,
2013-11-05 06:06:00,34.3,25.6,30.50,ENE,67,0.0,-999.0,70,-99.99,,,0.00,Acu-Link.com,2013-11-05 11:06:00,
2013-11-05 06:22:00,34.2,26.1,30.51,ENE,67,0.0,-999.0,72,-99.99,,,0.00,Acu-Link.com,2013-11-05 11:22:00,
2013-11-05 06:37:00,34.3,25.9,30.51,ENE,67,0.0,-999.0,71,-99.99,,,0.00,Acu-Link.com,2013-11-05 11:37:00,
2013-11-05 06:52:00,34.7,26.3,30.51,ENE,67,0.0,-999.0,71,-99.99,,,0.00,Acu-Link.com,2013-11-05 11:52:00,
2013-11-05 07:07:00,35.1,26.3,30.51,ENE,67,0.0,-999.0,70,-99.99,,,0.00,Acu-Link.com,2013-11-05 12:07:00,
2013-11-05 07:22:00,35.2,26.4,30.51,ENE,67,0.0,-999.0,70,-99.99,,,0.00,Acu-Link.com,2013-11-05 12:22:00,
2013-11-05 07:37:00,36.0,26.1,30.53,ENE,67,0.0,-999.0,67,-99.99,,,0.00,Acu-Link.com,2013-11-05 12:37:00,
2013-11-05 07:53:00,36.9,26.6,30.52,ENE,67,0.0,-999.0,66,-99.99,,,0.00,Acu-Link.com,2013-11-05 12:53:00,
2013-11-05 08:08:00,37.9,27.2,30.53,ENE,67,0.0,-999.0,65,-99.99,,,0.00,Acu-Link.com,2013-11-05 13:08:00,
2013-11-05 08:23:00,38.3,25.6,30.53,ENE,67,0.0,-999.0,60,-99.99,,,0.00,Acu-Link.com,2013-11-05 13:23:00,
2013-11-05 08:38:00,39.4,25.5,30.52,ENE,67,0.0,-999.0,57,-99.99,,,0.00,Acu-Link.com,2013-11-05 13:38:00,
2013-11-05 08:53:00,41.2,26.7,30.53,ENE,67,0.0,-999.0,56,-99.99,,,0.00,Acu-Link.com,2013-11-05 13:53:00,
2013-11-05 09:09:00,42.4,27.8,30.52,ENE,67,0.0,-999.0,56,-99.99,,,0.00,Acu-Link.com,2013-11-05 14:09:00,
2013-11-05 09:24:00,43.3,28.2,30.53,SSW,202,1.7,-999.0,55,-99.99,,,0.00,Acu-Link.com,2013-11-05 14:24:00,
2013-11-05 09:39:00,44.2,29.1,30.53,SSE,157,0.0,-999.0,55,-99.99,,,0.00,Acu-Link.com,2013-11-05 14:39:00,
2013-11-05 09:54:00,45.3,29.2,30.53,WNW,292,0.0,-999.0,53,-99.99,,,0.00,Acu-Link.com,2013-11-05 14:54:00,
2013-11-05 10:09:00,45.7,29.6,30.52,WNW,292,0.0,-999.0,53,-99.99,,,0.00,Acu-Link.com,2013-11-05 15:09:00,
2013-11-05 10:25:00,46.6,29.9,30.51,WNW,292,0.0,-999.0,52,-99.99,,,0.00,Acu-Link.com,2013-11-05 15:25:00,
2013-11-05 10:40:00,47.1,32.2,30.52,East,90,0.0,-999.0,56,-99.99,,,0.00,Acu-Link.com,2013-11-05 15:40:00,
2013-11-05 10:55:00,48.7,32.8,30.51,East,90,1.7,-999.0,54,-99.99,,,0.00,Acu-Link.com,2013-11-05 15:55:00,
2013-11-05 11:11:00,49.3,33.8,30.50,East,90,1.7,-999.0,55,-99.99,,,0.00,Acu-Link.com,2013-11-05 16:11:00,
2013-11-05 11:26:00,49.3,33.8,30.50,West,270,1.1,-999.0,55,-99.99,,,0.00,Acu-Link.com,2013-11-05 16:26:00,
2013-11-05 11:41:00,50.2,34.2,30.48,South,180,1.1,-999.0,54,-99.99,,,0.00,Acu-Link.com,2013-11-05 16:41:00,
2013-11-05 11:56:00,51.6,35.5,30.48,West,270,1.7,-999.0,54,-99.99,,,0.00,Acu-Link.com,2013-11-05 16:56:00,
2013-11-05 12:12:00,52.5,35.4,30.47,SSW,202,1.1,-999.0,52,-99.99,,,0.00,Acu-Link.com,2013-11-05 17:12:00,
2013-11-05 12:27:00,53.2,36.0,30.46,ENE,67,0.0,-999.0,52,-99.99,,,0.00,Acu-Link.com,2013-11-05 17:27:00,
2013-11-05 12:42:00,52.9,36.2,30.45,NNW,337,1.7,-999.0,53,-99.99,,,0.00,Acu-Link.com,2013-11-05 17:42:00,
2013-11-05 12:58:00,53.2,36.0,30.44,NNW,337,2.2,-999.0,52,-99.99,,,0.00,Acu-Link.com,2013-11-05 17:58:00,
2013-11-05 13:13:00,52.3,36.2,30.44,West,270,2.7,-999.0,54,-99.99,,,0.00,Acu-Link.com,2013-11-05 18:13:00,
2013-11-05 13:28:00,52.7,36.5,30.42,South,180,1.1,-999.0,54,-99.99,,,0.00,Acu-Link.com,2013-11-05 18:28:00,
2013-11-05 13:43:00,53.1,36.9,30.42,West,270,1.1,-999.0,54,-99.99,,,0.00,Acu-Link.com,2013-11-05 18:43:00,
2013-11-05 13:59:00,52.5,36.3,30.42,West,270,0.0,-999.0,54,-99.99,,,0.00,Acu-Link.com,2013-11-05 18:59:00,
2013-11-05 14:14:00,52.5,37.3,30.41,WSW,247,0.0,-999.0,56,-99.99,,,0.00,Acu-Link.com,2013-11-05 19:14:00,
2013-11-05 14:29:00,52.7,37.0,30.41,SSW,202,0.0,-999.0,55,-99.99,,,0.00,Acu-Link.com,2013-11-05 19:29:00,
2013-11-05 14:44:00,53.8,38.0,30.42,WNW,292,1.7,-999.0,55,-99.99,,,0.00,Acu-Link.com,2013-11-05 19:44:00,
2013-11-05 15:00:00,53.4,37.6,30.41,NNW,337,0.0,-999.0,55,-99.99,,,0.00,Acu-Link.com,2013-11-05 20:00:00,
2013-11-05 15:15:00,53.6,37.8,30.40,NNE,22,1.1,-999.0,55,-99.99,,,0.00,Acu-Link.com,2013-11-05 20:15:00,
2013-11-05 15:30:00,53.1,37.4,30.41,West,270,0.0,-999.0,55,-99.99,,,0.00,Acu-Link.com,2013-11-05 20:30:00,
2013-11-05 15:45:00,53.2,37.5,30.40,WSW,247,1.1,-999.0,55,-99.99,,,0.00,Acu-Link.com,2013-11-05 20:45:00,
2013-11-05 16:01:00,53.1,37.8,30.39,SSE,157,1.1,-999.0,56,-99.99,,,0.00,Acu-Link.com,2013-11-05 21:01:00,
2013-11-05 16:16:00,52.9,37.6,30.39,WNW,292,0.0,-999.0,56,-99.99,,,0.00,Acu-Link.com,2013-11-05 21:16:00,
2013-11-05 16:31:00,52.7,37.9,30.38,SSW,202,0.0,-999.0,57,-99.99,,,0.00,Acu-Link.com,2013-11-05 21:31:00,
2013-11-05 16:46:00,51.6,37.7,30.38,SSE,157,0.0,-999.0,59,-99.99,,,0.00,Acu-Link.com,2013-11-05 21:46:00,
2013-11-05 17:02:00,50.4,37.5,30.40,SSE,157,0.0,-999.0,61,-99.99,,,0.00,Acu-Link.com,2013-11-05 22:02:00,
2013-11-05 17:17:00,48.9,36.9,30.40,SSE,157,0.0,-999.0,63,-99.99,,,0.00,Acu-Link.com,2013-11-05 22:17:00,
2013-11-05 17:32:00,47.7,36.9,30.41,SSE,157,0.0,-999.0,66,-99.99,,,0.00,Acu-Link.com,2013-11-05 22:32:00,
2013-11-05 17:47:00,47.3,36.9,30.41,SSE,157,0.0,-999.0,67,-99.99,,,0.00,Acu-Link.com,2013-11-05 22:47:00,
2013-11-05 18:02:00,47.1,37.5,30.41,SSE,157,0.0,-999.0,69,-99.99,,,0.00,Acu-Link.com,2013-11-05 23:02:00,
2013-11-05 18:17:00,47.1,37.5,30.41,SSE,157,1.7,-999.0,69,-99.99,,,0.00,Acu-Link.com,2013-11-05 23:17:00,
2013-11-05 18:33:00,46.9,37.6,30.41,SSE,157,0.0,-999.0,70,-99.99,,,0.00,Acu-Link.com,2013-11-05 23:33:00,
2013-11-05 18:48:00,46.6,37.3,30.41,SSE,157,0.0,-999.0,70,-99.99,,,0.00,Acu-Link.com,2013-11-05 23:48:00,
2013-11-05 19:03:00,46.2,37.3,30.40,SSE,157,0.0,-999.0,71,-99.99,,,0.00,Acu-Link.com,2013-11-06 00:03:00,
2013-11-05 19:18:00,45.9,37.4,30.41,SSE,157,0.0,-999.0,72,-99.99,,,0.00,Acu-Link.com,2013-11-06 00:18:00,
2013-11-05 19:33:00,45.7,37.5,30.39,SSE,157,0.0,-999.0,73,-99.99,,,0.00,Acu-Link.com,2013-11-06 00:33:00,
2013-11-05 19:49:00,45.5,37.7,30.39,SSE,157,0.0,-999.0,74,-99.99,,,0.00,Acu-Link.com,2013-11-06 00:49:00,
2013-11-05 20:04:00,45.3,37.5,30.37,SSE,157,0.0,-999.0,74,-99.99,,,0.00,Acu-Link.com,2013-11-06 01:04:00,
2013-11-05 20:19:00,45.0,37.6,30.37,SSE,157,0.0,-999.0,75,-99.99,,,0.00,Acu-Link.com,2013-11-06 01:19:00,
2013-11-05 20:34:00,44.8,37.7,30.37,SSE,157,0.0,-999.0,76,-99.99,,,0.00,Acu-Link.com,2013-11-06 01:34:00,
2013-11-05 20:50:00,44.6,37.5,30.38,SSE,157,0.0,-999.0,76,-99.99,,,0.00,Acu-Link.com,2013-11-06 01:50:00,
2013-11-05 21:05:00,44.6,37.8,30.38,SSE,157,0.0,-999.0,77,-99.99,,,0.00,Acu-Link.com,2013-11-06 02:05:00,
2013-11-05 21:20:00,44.6,37.8,30.35,SSE,157,0.0,-999.0,77,-99.99,,,0.00,Acu-Link.com,2013-11-06 02:20:00,
2013-11-05 21:35:00,44.4,38.0,30.35,SSE,157,0.0,-999.0,78,-99.99,,,0.00,Acu-Link.com,2013-11-06 02:35:00,
2013-11-05 21:51:00,44.6,38.2,30.36,West,270,0.0,-999.0,78,-99.99,,,0.00,Acu-Link.com,2013-11-06 02:51:00,
2013-11-05 22:06:00,44.6,38.2,30.35,West,270,0.0,-999.0,78,-99.99,,,0.00,Acu-Link.com,2013-11-06 03:06:00,
2013-11-05 22:21:00,44.4,38.0,30.35,West,270,0.0,-999.0,78,-99.99,,,0.00,Acu-Link.com,2013-11-06 03:21:00,
2013-11-05 22:37:00,44.1,38.0,30.36,West,270,0.0,-999.0,79,-99.99,,,0.00,Acu-Link.com,2013-11-06 03:37:00,
2013-11-05 22:52:00,44.1,38.0,30.36,West,270,0.0,-999.0,79,-99.99,,,0.00,Acu-Link.com,2013-11-06 03:52:00,
2013-11-05 23:07:00,44.1,38.0,30.35,West,270,0.0,-999.0,79,-99.99,,,0.00,Acu-Link.com,2013-11-06 04:07:00,
2013-11-05 23:22:00,43.9,38.1,30.35,West,270,0.0,-999.0,80,-99.99,,,0.00,Acu-Link.com,2013-11-06 04:22:00,
2013-11-05 23:37:00,43.9,38.1,30.35,West,270,0.0,-999.0,80,-99.99,,,0.00,Acu-Link.com,2013-11-06 04:37:00,
2013-11-05 23:52:00,43.9,38.1,30.34,West,270,0.0,-999.0,80,-99.99,,,0.00,Acu-Link.com,2013-11-06 04:52:00,